GEESAT-5 C

Last updated on Sat Sep 13 2025 00:02:08 GMT+0000 (Coordinated Universal Time)

1 65552U 25201C 25254.01570034 .00000563 00000+0 79698-4 0 9997 2 65552 49.9852 254.9747 0011498 302.1240 57.8585 14.91538973 328
UTC large
Height (km)
Speed (km/s)
/
Latitude / Longitude
Inclination (degrees)
Orbital Period (minutes)
Azimuth
Elevation
Range (km)
Doppler Factor

Next 0 passes for location: London (51.5072 / 0.1276)

Sorry there are no passes over London.